Regional Weather Roundup
Issued by NWS

Home | Current Version | Previous Version | Text Only | Print | Product List | Glossary On
Versions: 1 2 3 4 5 6 7 8 9 10 11 12 13 14 15 16 17 18 19 20 21 22 23 24 25 26 27 28 29 30 31 32 33 34 35 36 37 38 39 40 41 42 43 44 45 46 47 48 49 50
000
ASUS45 KREV 251510
RWRNV
NEVADA REGIONAL WEATHER ROUNDUP
NATIONAL WEATHER SERVICE RENO NV
800 AM PDT THU AUG 25 2016

NOTE: "FAIR" INDICATES FEW OR NO CLOUDS BELOW 12,000 FEET WITH NO
SIGNIFICANT WEATHER AND/OR OBSTRUCTIONS TO VISIBILITY.

NVZ001-003-004-251600-
WESTERN NEVADA

CITY           SKY/WX    TMP DP  RH WIND       PRES   REMARKS
RENO           SUNNY     61  28  28 W3        30.16R
CARSON CITY    FAIR      54  23  30 CALM      30.18S
MINDEN         FAIR      50  23  34 CALM      30.18S
PYRAMID LAKE     N/A     72 N/A N/A N10         N/A
FALLON         SUNNY     65  29  25 N5        30.12R
LOVELOCK       SUNNY     67  25  20 NE10      30.12R
HAWTHORNE        N/A     66  27  22 CALM      30.13R
$$

NVZ002-CAZ072-073-251600-
NORTHERN AND CENTRAL SIERRA

CITY           SKY/WX    TMP DP  RH WIND       PRES   REMARKS
S. LAKE TAHOE  SUNNY     41  25  53 S5        30.24R
SQUAW VLY 8000 NOT AVBL
SUSANVILLE     SUNNY     57  32  38 SW3       30.16R
MAMMOTH LAKES  FAIR      54  20  27 CALM      30.27S
BRIDGEPORT       N/A     42  21  43 CALM      30.25F
$$

NVZ030-031-036-251600-
NORTHERN NEVADA

CITY           SKY/WX    TMP DP  RH WIND       PRES   REMARKS
ELKO           MOSUNNY   59  25  27 CALM      30.18R
WINNEMUCCA     SUNNY     64  26  23 N9        30.15R
WENDOVER       CLOUDY    68  27  21 CALM      30.12S
$$

NVZ035-037-251600-
CENTRAL NEVADA

CITY           SKY/WX    TMP DP  RH WIND       PRES   REMARKS
ELY            PTSUNNY   50  22  33 S7        30.22R
EUREKA           N/A     56  25  30 E3        30.20R
$$

NVZ013-014-251600-
SOUTH CENTRAL NEVADA

CITY           SKY/WX    TMP DP  RH WIND       PRES   REMARKS
TONOPAH        MOSUNNY   63  15  15 N10       30.15R
$$

NVZ017-020-022-251600-
SOUTHERN NEVADA

CITY           SKY/WX    TMP DP  RH WIND       PRES   REMARKS
LAS VEGAS      MOSUNNY   87  36  16 S8        29.90R
N. LAS VEGAS   SUNNY     80  44  27 CALM      29.92R
NELLIS AFB     SUNNY     83  52  35 N5        29.91R
HENDERSON      SUNNY     87  41  19 S14       29.96R
MERCURY        SUNNY     80  35  19 CALM      29.99R
$$



USA.gov is the U.S. government's official web portal to all federal, state and local government web resources and services.